Location: Asheville, NC
(35.6000°N, 82.5500°W)
Time: 16:18:52
(UTC-05:00)

KKS-1 - Pass Details

Date: 12 February 2018
Orbit: 638 x 650 km, 98.3° (Epoch: 20 February)

Event Time Altitude Azimuth Distance (km) Brightness Sun altitude
Rises 04:19:08 0° 132° (SE) 2,928 ? -37.3°
Reaches altitude 10° 04:21:46 10° 116° (ESE) 2,026 ? -36.7°
Enters shadow 04:24:00 19° 88° (E) 1,513 ? -36.3°
